BEL9HZ EGCC-EBBR

Flight info

Callsign BEL9HZ
Flight time 1h 11m
Altitude 28996
Route LISTO L612 HON/N0452F290 L15 BIG Q70 VABIK/N0410F230 Q70 KOK
Aircraft A319/M-SDE3FGHIRWY/LB1

Departure

Time 2026-05-05 13:00
Airport Manchester Airport (EGCC)

Arrival

Time 2026-05-05 14:11
Airport Brussels Airport (EBBR)
Time Latitude Longitude Altitude Speed Heading
2026-05-05 12:26 53.36618 -2.28620 233 ft 0 kts 135°
2026-05-05 12:45 53.36623 -2.28629 233 ft 4 kts 136°
2026-05-05 12:45 53.36645 -2.28656 234 ft 4 kts 158°
2026-05-05 12:46 53.36668 -2.28662 234 ft 4 kts 205°
2026-05-05 12:46 53.36679 -2.28651 236 ft 1 kts 225°
2026-05-05 12:46 53.36680 -2.28649 236 ft 0 kts 225°
2026-05-05 12:50 53.36677 -2.28655 237 ft 2 kts 225°
2026-05-05 12:50 53.36658 -2.28688 234 ft 6 kts 231°
2026-05-05 12:51 53.36632 -2.28772 233 ft 10 kts 220°
2026-05-05 12:51 53.36565 -2.28724 233 ft 9 kts 134°
2026-05-05 12:51 53.36513 -2.28636 233 ft 13 kts 134°
2026-05-05 12:51 53.36466 -2.28555 233 ft 7 kts 134°
2026-05-05 12:52 53.36432 -2.28496 233 ft 6 kts 133°
2026-05-05 12:52 53.36403 -2.28416 233 ft 10 kts 128°
2026-05-05 12:52 53.36342 -2.28312 233 ft 15 kts 135°
2026-05-05 12:52 53.36285 -2.28218 233 ft 13 kts 135°
2026-05-05 12:53 53.36224 -2.28115 233 ft 10 kts 135°
2026-05-05 12:53 53.36166 -2.28016 233 ft 14 kts 134°
2026-05-05 12:53 53.36111 -2.27923 233 ft 7 kts 134°
2026-05-05 12:53 53.36066 -2.27855 233 ft 11 kts 144°
2026-05-05 12:54 53.35902 -2.27730 233 ft 14 kts 181°
2026-05-05 12:54 53.35812 -2.27741 233 ft 12 kts 188°
2026-05-05 12:54 53.35736 -2.27754 233 ft 10 kts 186°
2026-05-05 12:55 53.35688 -2.27776 234 ft 9 kts 215°
2026-05-05 12:55 53.35637 -2.27875 233 ft 13 kts 231°
2026-05-05 12:55 53.35576 -2.28004 233 ft 15 kts 231°
2026-05-05 12:55 53.35489 -2.28128 234 ft 17 kts 206°
2026-05-05 12:56 53.35383 -2.28167 233 ft 16 kts 187°
2026-05-05 12:56 53.35271 -2.28247 233 ft 18 kts 214°
2026-05-05 12:56 53.35184 -2.28400 233 ft 14 kts 231°
2026-05-05 12:56 53.35112 -2.28549 234 ft 18 kts 231°
2026-05-05 12:57 53.35022 -2.28728 233 ft 22 kts 226°
2026-05-05 12:57 53.34932 -2.28885 233 ft 20 kts 226°
2026-05-05 12:57 53.34833 -2.29060 233 ft 21 kts 228°
2026-05-05 12:57 53.34736 -2.29258 234 ft 22 kts 230°
2026-05-05 12:58 53.34660 -2.29338 233 ft 0 kts 194°
2026-05-05 12:58 53.34637 -2.29342 234 ft 6 kts 185°
2026-05-05 12:58 53.34584 -2.29329 233 ft 10 kts 160°
2026-05-05 12:59 53.34544 -2.29223 233 ft 14 kts 79°
2026-05-05 12:59 53.34590 -2.29118 233 ft 13 kts 51°
2026-05-05 12:59 53.34676 -2.28941 233 ft 41 kts 51°
2026-05-05 13:00 53.35655 -2.26915 316 ft 163 kts 49°
2026-05-05 13:00 53.36353 -2.25459 1064 ft 159 kts 48°
2026-05-05 13:01 53.37359 -2.20024 2693 ft 216 kts 118°
2026-05-05 13:01 53.36196 -2.18211 3108 ft 245 kts 145°
2026-05-05 13:01 53.34602 -2.16893 3682 ft 268 kts 169°
2026-05-05 13:01 53.32729 -2.16935 4726 ft 272 kts 188°
2026-05-05 13:02 53.30832 -2.17295 5724 ft 275 kts 186°
2026-05-05 13:02 53.28922 -2.17623 6773 ft 277 kts 186°
2026-05-05 13:02 53.26993 -2.17933 7758 ft 281 kts 187°
2026-05-05 13:02 53.25028 -2.18239 8728 ft 285 kts 186°
2026-05-05 13:03 53.23036 -2.18546 9677 ft 290 kts 188°
2026-05-05 13:03 53.21000 -2.18864 10369 ft 303 kts 188°
2026-05-05 13:03 53.18814 -2.19213 10710 ft 327 kts 188°
2026-05-05 13:03 53.16474 -2.19538 11147 ft 345 kts 182°
2026-05-05 13:04 53.14083 -2.19227 11877 ft 354 kts 171°
2026-05-05 13:04 53.11698 -2.18085 12658 ft 361 kts 160°
2026-05-05 13:04 53.09339 -2.16445 13481 ft 365 kts 158°
2026-05-05 13:04 53.07017 -2.14835 14255 ft 368 kts 159°
2026-05-05 13:05 53.04610 -2.13176 14991 ft 371 kts 159°
2026-05-05 13:05 53.02216 -2.11525 15714 ft 374 kts 159°
2026-05-05 13:05 52.99828 -2.09879 16442 ft 377 kts 159°
2026-05-05 13:05 52.97391 -2.08203 17154 ft 380 kts 160°
2026-05-05 13:06 52.94937 -2.06518 17869 ft 383 kts 160°
2026-05-05 13:06 52.92462 -2.04819 18539 ft 387 kts 160°
2026-05-05 13:06 52.89970 -2.03107 19160 ft 390 kts 160°
2026-05-05 13:06 52.87455 -2.01376 19783 ft 392 kts 160°
2026-05-05 13:07 52.84924 -1.99637 20414 ft 395 kts 160°
2026-05-05 13:07 52.82377 -1.97896 21027 ft 398 kts 160°
2026-05-05 13:07 52.79802 -1.96141 21633 ft 401 kts 160°
2026-05-05 13:07 52.77214 -1.94382 22218 ft 404 kts 160°
2026-05-05 13:08 52.74604 -1.92610 22775 ft 407 kts 159°
2026-05-05 13:08 52.72009 -1.90846 23318 ft 410 kts 159°
2026-05-05 13:08 52.69328 -1.89027 23820 ft 413 kts 159°
2026-05-05 13:08 52.66699 -1.87249 24267 ft 415 kts 159°
2026-05-05 13:09 52.63983 -1.85412 24727 ft 418 kts 159°
2026-05-05 13:09 52.61323 -1.83614 25167 ft 420 kts 159°
2026-05-05 13:09 52.58614 -1.81779 25614 ft 422 kts 159°
2026-05-05 13:09 52.55891 -1.79936 26063 ft 424 kts 159°
2026-05-05 13:10 52.53151 -1.78089 26503 ft 427 kts 159°
2026-05-05 13:10 52.50391 -1.76235 26949 ft 429 kts 159°
2026-05-05 13:10 52.47623 -1.74381 27426 ft 430 kts 159°
2026-05-05 13:10 52.44845 -1.72523 27866 ft 432 kts 159°
2026-05-05 13:11 52.42049 -1.70653 28279 ft 434 kts 159°
2026-05-05 13:11 52.39244 -1.68767 28686 ft 437 kts 158°
2026-05-05 13:11 52.36543 -1.66450 28960 ft 441 kts 149°
2026-05-05 13:11 52.34080 -1.63479 29006 ft 438 kts 141°
2026-05-05 13:12 52.29821 -1.56389 29001 ft 437 kts 135°
2026-05-05 13:12 52.26332 -1.50408 28997 ft 436 kts 136°
2026-05-05 13:13 52.22157 -1.43285 29003 ft 433 kts 136°
2026-05-05 13:13 52.17314 -1.35078 29002 ft 432 kts 137°
2026-05-05 13:14 52.13825 -1.29182 28999 ft 431 kts 137°
2026-05-05 13:14 52.09655 -1.22158 28995 ft 431 kts 137°
2026-05-05 13:15 52.05483 -1.15145 28990 ft 431 kts 137°
2026-05-05 13:15 52.01309 -1.08143 28976 ft 431 kts 137°
2026-05-05 13:16 51.97130 -1.01173 28978 ft 431 kts 137°
2026-05-05 13:16 51.92978 -0.94253 28971 ft 430 kts 137°
2026-05-05 13:17 51.88810 -0.87304 28977 ft 429 kts 137°
2026-05-05 13:17 51.84639 -0.80386 28978 ft 429 kts 137°
2026-05-05 13:18 51.80466 -0.73492 28960 ft 428 kts 137°
2026-05-05 13:18 51.76298 -0.66617 28962 ft 428 kts 137°
2026-05-05 13:19 51.72150 -0.59803 28986 ft 428 kts 137°
2026-05-05 13:19 51.67971 -0.52951 28968 ft 428 kts 137°
2026-05-05 13:20 51.63792 -0.46112 28976 ft 428 kts 137°
2026-05-05 13:20 51.59605 -0.39282 28977 ft 428 kts 137°
2026-05-05 13:21 51.55423 -0.32486 28977 ft 428 kts 137°
2026-05-05 13:21 51.51237 -0.25711 28976 ft 427 kts 137°
2026-05-05 13:22 51.47047 -0.18952 28972 ft 426 kts 137°
2026-05-05 13:22 51.42891 -0.12248 28962 ft 426 kts 137°
2026-05-05 13:23 51.38710 -0.05520 28950 ft 426 kts 137°
2026-05-05 13:23 51.35075 0.01348 28952 ft 430 kts 124°
2026-05-05 13:24 51.32894 0.10285 28957 ft 437 kts 103°
2026-05-05 13:24 51.32342 0.19987 29058 ft 438 kts 96°
2026-05-05 13:25 51.31904 0.29401 29083 ft 437 kts 97°
2026-05-05 13:25 51.31433 0.39092 29096 ft 437 kts 97°
2026-05-05 13:26 51.30953 0.48776 29097 ft 437 kts 96°
2026-05-05 13:26 51.30469 0.58437 29097 ft 435 kts 96°
2026-05-05 13:27 51.30052 0.68082 29069 ft 435 kts 95°
2026-05-05 13:27 51.29738 0.77726 29032 ft 434 kts 95°
2026-05-05 13:28 51.29417 0.87343 28990 ft 434 kts 95°
2026-05-05 13:28 51.29057 0.96960 28943 ft 433 kts 95°
2026-05-05 13:29 51.28682 1.06515 28937 ft 434 kts 96°
2026-05-05 13:29 51.28298 1.16140 28938 ft 435 kts 95°
2026-05-05 13:30 51.27913 1.25792 28940 ft 435 kts 95°
2026-05-05 13:30 51.27520 1.35440 28944 ft 436 kts 96°
2026-05-05 13:31 51.27107 1.45088 28937 ft 435 kts 96°
2026-05-05 13:31 51.26691 1.54738 28939 ft 435 kts 96°
2026-05-05 13:32 51.26273 1.64380 28949 ft 435 kts 96°
2026-05-05 13:32 51.25847 1.74006 28824 ft 432 kts 96°
2026-05-05 13:33 51.25634 1.78785 27884 ft 433 kts 96°
2026-05-05 13:33 51.25418 1.83592 26872 ft 435 kts 96°
2026-05-05 13:33 51.25197 1.88405 26116 ft 432 kts 96°
2026-05-05 13:33 51.24975 1.93156 25412 ft 428 kts 97°
2026-05-05 13:34 51.24753 1.97871 24751 ft 424 kts 96°
2026-05-05 13:34 51.24527 2.02534 24109 ft 419 kts 97°
2026-05-05 13:34 51.23888 2.07010 23480 ft 411 kts 112°
2026-05-05 13:34 51.22862 2.11232 23017 ft 407 kts 113°
2026-05-05 13:35 51.21832 2.15443 22922 ft 407 kts 113°
2026-05-05 13:35 51.20812 2.19602 22947 ft 409 kts 112°
2026-05-05 13:35 51.19772 2.23835 22949 ft 409 kts 113°
2026-05-05 13:35 51.18730 2.28067 22940 ft 408 kts 112°
2026-05-05 13:36 51.17690 2.32280 22943 ft 409 kts 112°
2026-05-05 13:36 51.16645 2.36503 22941 ft 409 kts 112°
2026-05-05 13:36 51.15597 2.40725 22942 ft 410 kts 112°
2026-05-05 13:36 51.14544 2.44955 22943 ft 410 kts 114°
2026-05-05 13:37 51.13492 2.49169 22938 ft 410 kts 113°
2026-05-05 13:37 51.12433 2.53386 22934 ft 411 kts 113°
2026-05-05 13:37 51.11371 2.57605 22934 ft 411 kts 114°
2026-05-05 13:37 51.10308 2.61829 22934 ft 410 kts 114°
2026-05-05 13:38 51.09422 2.66142 22926 ft 412 kts 105°
2026-05-05 13:38 51.08932 2.70640 22930 ft 414 kts 100°
2026-05-05 13:38 51.08504 2.75112 22928 ft 414 kts 101°
2026-05-05 13:38 51.08068 2.79632 22927 ft 413 kts 100°
2026-05-05 13:39 51.07609 2.84201 22915 ft 414 kts 101°
2026-05-05 13:39 51.07144 2.88674 22921 ft 416 kts 101°
2026-05-05 13:39 51.06652 2.93212 22921 ft 417 kts 102°
2026-05-05 13:39 51.06109 2.97736 22921 ft 417 kts 103°
2026-05-05 13:40 51.05526 3.02299 22921 ft 416 kts 104°
2026-05-05 13:40 51.04939 3.06752 22903 ft 415 kts 103°
2026-05-05 13:40 51.04344 3.11242 22364 ft 416 kts 103°
2026-05-05 13:40 51.03754 3.15712 21753 ft 410 kts 103°
2026-05-05 13:41 51.03183 3.20117 21206 ft 404 kts 104°
2026-05-05 13:41 51.02623 3.24463 20630 ft 400 kts 103°
2026-05-05 13:41 51.02065 3.28777 20062 ft 396 kts 104°
2026-05-05 13:41 51.01515 3.33034 19551 ft 392 kts 103°
2026-05-05 13:42 51.00966 3.37256 19040 ft 389 kts 103°
2026-05-05 13:42 51.00419 3.41440 18539 ft 386 kts 103°
2026-05-05 13:42 50.99875 3.45594 18036 ft 382 kts 102°
2026-05-05 13:42 50.99338 3.49692 17528 ft 377 kts 102°
2026-05-05 13:43 50.98805 3.53759 16944 ft 374 kts 102°
2026-05-05 13:43 50.98272 3.57796 16382 ft 372 kts 102°
2026-05-05 13:43 50.97739 3.61783 15863 ft 368 kts 102°
2026-05-05 13:43 50.97211 3.65728 15329 ft 364 kts 102°
2026-05-05 13:44 50.96689 3.69655 14951 ft 364 kts 102°
2026-05-05 13:44 50.96170 3.73573 14873 ft 363 kts 102°
2026-05-05 13:44 50.95651 3.77477 14808 ft 363 kts 102°
2026-05-05 13:44 50.95127 3.81395 14305 ft 362 kts 102°
2026-05-05 13:45 50.94603 3.85282 13824 ft 360 kts 101°
2026-05-05 13:45 50.94079 3.89147 13306 ft 357 kts 101°
2026-05-05 13:45 50.93554 3.92983 12777 ft 354 kts 101°
2026-05-05 13:45 50.93034 3.96783 12266 ft 353 kts 102°
2026-05-05 13:46 50.92516 4.00573 11758 ft 349 kts 101°
2026-05-05 13:46 50.92019 4.04303 11267 ft 343 kts 101°
2026-05-05 13:46 50.91514 4.07940 10758 ft 333 kts 106°
2026-05-05 13:46 50.90537 4.11164 10495 ft 318 kts 124°
2026-05-05 13:47 50.89074 4.13598 10371 ft 301 kts 142°
2026-05-05 13:47 50.87292 4.15194 10122 ft 291 kts 159°
2026-05-05 13:47 50.85354 4.16049 9676 ft 288 kts 165°
2026-05-05 13:47 50.83417 4.16805 9195 ft 286 kts 165°
2026-05-05 13:48 50.81487 4.17558 8743 ft 284 kts 165°
2026-05-05 13:48 50.79577 4.18305 8271 ft 281 kts 165°
2026-05-05 13:48 50.77683 4.19045 7761 ft 279 kts 164°
2026-05-05 13:48 50.75806 4.19777 7258 ft 277 kts 164°
2026-05-05 13:49 50.73942 4.20503 6832 ft 274 kts 163°
2026-05-05 13:49 50.72135 4.21208 6706 ft 262 kts 165°
2026-05-05 13:49 50.70482 4.22153 6568 ft 244 kts 143°
2026-05-05 13:49 50.69382 4.24050 6310 ft 231 kts 115°
2026-05-05 13:50 50.69042 4.26480 5878 ft 229 kts 85°
2026-05-05 13:50 50.69363 4.28915 5505 ft 227 kts 74°
2026-05-05 13:50 50.69750 4.31320 5209 ft 225 kts 75°
2026-05-05 13:50 50.70123 4.33681 5087 ft 220 kts 75°
2026-05-05 13:51 50.70484 4.35994 4959 ft 214 kts 74°
2026-05-05 13:51 50.70831 4.38224 4818 ft 204 kts 74°
2026-05-05 13:51 50.71314 4.40262 4698 ft 194 kts 58°
2026-05-05 13:51 50.72167 4.41835 4555 ft 187 kts 38°
2026-05-05 13:52 50.73276 4.42847 4362 ft 183 kts 20°
2026-05-05 13:52 50.74483 4.43362 4231 ft 177 kts 16°
2026-05-05 13:52 50.75652 4.43838 4101 ft 170 kts 15°
2026-05-05 13:52 50.76773 4.44294 3973 ft 163 kts 15°
2026-05-05 13:53 50.77858 4.44735 3774 ft 159 kts 15°
2026-05-05 13:53 50.78924 4.45168 3553 ft 157 kts 15°
2026-05-05 13:53 50.79953 4.45585 3362 ft 154 kts 14°
2026-05-05 13:53 50.80989 4.46006 3123 ft 153 kts 14°
2026-05-05 13:54 50.82007 4.46420 2778 ft 151 kts 14°
2026-05-05 13:54 50.83024 4.46833 2516 ft 149 kts 14°
2026-05-05 13:54 50.84041 4.47246 2502 ft 152 kts 15°
2026-05-05 13:54 50.85036 4.47595 2300 ft 139 kts 12°
2026-05-05 13:55 50.85973 4.47883 1873 ft 137 kts 14°
2026-05-05 13:55 50.86894 4.48326 1389 ft 139 kts 19°
2026-05-05 13:55 50.87767 4.48741 1354 ft 126 kts 17°
2026-05-05 13:55 50.88647 4.49112 1482 ft 145 kts 17°
2026-05-05 13:56 50.89693 4.49540 1841 ft 166 kts 16°
2026-05-05 13:56 50.90829 4.50026 2104 ft 169 kts 16°
2026-05-05 13:56 50.92003 4.50084 2346 ft 175 kts 346°
2026-05-05 13:56 50.93020 4.49024 2478 ft 185 kts 312°
2026-05-05 13:57 50.93544 4.47136 2503 ft 191 kts 284°
2026-05-05 13:57 50.93475 4.44957 2662 ft 210 kts 265°
2026-05-05 13:57 50.93280 4.42629 3404 ft 214 kts 265°
2026-05-05 13:57 50.93077 4.40265 3885 ft 218 kts 265°
2026-05-05 13:58 50.92867 4.37881 3987 ft 219 kts 265°
2026-05-05 13:58 50.92656 4.35491 4014 ft 218 kts 262°
2026-05-05 13:58 50.92447 4.33118 4002 ft 217 kts 264°
2026-05-05 13:58 50.92240 4.30744 3950 ft 217 kts 265°
2026-05-05 13:59 50.91836 4.26169 3579 ft 200 kts 265°
2026-05-05 13:59 50.91647 4.24014 3365 ft 194 kts 265°
2026-05-05 14:00 50.90811 4.19993 2993 ft 197 kts 237°
2026-05-05 14:00 50.90219 4.18890 2992 ft 199 kts 225°
2026-05-05 14:00 50.89072 4.17654 2992 ft 201 kts 205°
2026-05-05 14:00 50.87733 4.17075 2991 ft 200 kts 185°
2026-05-05 14:01 50.86351 4.17201 2996 ft 199 kts 165°
2026-05-05 14:01 50.85062 4.17974 2978 ft 198 kts 152°
2026-05-05 14:01 50.83805 4.18875 2976 ft 198 kts 153°
2026-05-05 14:01 50.82141 4.20055 2977 ft 197 kts 153°
2026-05-05 14:02 50.81297 4.20652 2977 ft 197 kts 153°
2026-05-05 14:02 50.80050 4.21533 2959 ft 197 kts 153°
2026-05-05 14:02 50.78805 4.22415 2958 ft 196 kts 152°
2026-05-05 14:02 50.77564 4.23299 2970 ft 195 kts 152°
2026-05-05 14:03 50.76324 4.24181 2974 ft 195 kts 152°
2026-05-05 14:03 50.75062 4.24978 2974 ft 196 kts 154°
2026-05-05 14:03 50.73825 4.25866 2973 ft 195 kts 151°
2026-05-05 14:03 50.72576 4.26722 2975 ft 196 kts 153°
2026-05-05 14:04 50.71411 4.27772 2791 ft 190 kts 131°
2026-05-05 14:04 50.70684 4.29468 2525 ft 185 kts 110°
2026-05-05 14:04 50.70269 4.31356 2269 ft 180 kts 97°
2026-05-05 14:04 50.70276 4.33257 2057 ft 175 kts 82°
2026-05-05 14:05 50.70359 4.35187 1972 ft 176 kts 81°
2026-05-05 14:05 50.70587 4.37073 1975 ft 176 kts 73°
2026-05-05 14:05 50.70975 4.38880 1974 ft 170 kts 61°
2026-05-05 14:05 50.71495 4.40481 1972 ft 160 kts 58°
2026-05-05 14:06 50.72157 4.41829 1973 ft 153 kts 40°
2026-05-05 14:06 50.73090 4.42571 1978 ft 151 kts 18°
2026-05-05 14:06 50.74103 4.43039 1977 ft 151 kts 16°
2026-05-05 14:06 50.75116 4.43480 1979 ft 151 kts 16°
2026-05-05 14:07 50.76130 4.43915 1982 ft 151 kts 16°
2026-05-05 14:07 50.77145 4.44344 1979 ft 151 kts 16°
2026-05-05 14:07 50.78157 4.44768 1980 ft 151 kts 16°
2026-05-05 14:07 50.79175 4.45194 1981 ft 151 kts 15°
2026-05-05 14:08 50.80191 4.45619 1975 ft 150 kts 15°
2026-05-05 14:08 50.81184 4.46034 1973 ft 140 kts 15°
2026-05-05 14:08 50.82092 4.46435 1790 ft 134 kts 16°
2026-05-05 14:08 50.82957 4.46785 1579 ft 124 kts 15°
2026-05-05 14:09 50.83776 4.47105 1323 ft 119 kts 15°
2026-05-05 14:09 50.84564 4.47461 1085 ft 117 kts 18°
2026-05-05 14:09 50.85360 4.47767 918 ft 117 kts 15°
2026-05-05 14:09 50.86153 4.48103 770 ft 120 kts 16°
2026-05-05 14:10 50.86955 4.48431 590 ft 119 kts 14°
2026-05-05 14:10 50.87756 4.48755 415 ft 119 kts 14°
2026-05-05 14:10 50.88554 4.49084 272 ft 117 kts 15°
2026-05-05 14:10 50.89324 4.49398 176 ft 103 kts 16°
2026-05-05 14:11 50.89873 4.49623 140 ft 57 kts 14°
2026-05-05 14:11 50.90107 4.49710 132 ft 23 kts
2026-05-05 14:11 50.90260 4.49690 127 ft 18 kts 346°
2026-05-05 14:11 50.90340 4.49654 124 ft 8 kts 343°
2026-05-05 14:12 50.90363 4.49579 125 ft 10 kts 249°
2026-05-05 14:12 50.90302 4.49530 125 ft 10 kts 194°
2026-05-05 14:12 50.90236 4.49503 127 ft 9 kts 194°
2026-05-05 14:12 50.90176 4.49479 129 ft 9 kts 194°
2026-05-05 14:13 50.90114 4.49454 129 ft 11 kts 194°
2026-05-05 14:13 50.90030 4.49406 129 ft 15 kts 221°
2026-05-05 14:13 50.89979 4.49255 134 ft 16 kts 250°
2026-05-05 14:13 50.89943 4.49103 136 ft 16 kts 245°
2026-05-05 14:14 50.89890 4.48919 136 ft 21 kts 245°
2026-05-05 14:14 50.89842 4.48752 136 ft 15 kts 245°
2026-05-05 14:14 50.89837 4.48659 135 ft 8 kts 330°
2026-05-05 14:14 50.89899 4.48616 129 ft 7 kts 335°
2026-05-05 14:15 50.89908 4.48609 127 ft 0 kts 335°